Powrót do katalogu

ONEWEB-0165

AktywnyŁącznośćPO
NORAD 48233·PAYLOAD·🇬🇧 United Kingdom

Wystrzelony Apr 25, 2021 z Vostochny Cosmodrome

Loading…

Następne Przeloty (najbliższe 24 godziny)

TLE

ŚwieżeSource: CelesTrak SupGP

Epoka: Sep 14, 2026, 10:23 UTC

1 48233C 21031Z   26257.43314074  .00003722  00000+0  10051-1 0  2573
2 48233  87.8902 271.9141 0001645  83.7001  18.2561 13.14500305    12

Śledź ONEWEB-0165 w czasie rzeczywistym z AllMySat

Download on the App Store